Observations
| Time | Sensor | AQI | SAQ | Temp °C | Hum % | Pres Pa | CO μg/m³ | H₂S μg/m³ | NO μg/m³ | NO₂ μg/m³ | O₃ μg/m³ | SO₂ μg/m³ | CO₂e PPM | VOC PPM | PM1 μg/m³ | PM2.5 μg/m³ | PM4 μg/m³ | PM10 μg/m³ | TPS µm |
|---|---|---|---|---|---|---|---|---|---|---|---|---|---|---|---|---|---|---|---|
| Thursday 13 August 2026 | |||||||||||||||||||
| 10:41 | Trim Patrick St | 1 | 29.5 | 52 | 69,919 | 0 | 0 | 0.78 | 12.09 | 57.18 | 14.29 | 2.86 | 7.84 | 8.62 | |||||
| 10:41 | Trim Market St | 2 | 29.2 | 53 | 56,382 | 0 | 0 | 0.69 | 13.15 | 45.75 | 0 | 1.43 | 4.36 | 5.35 | |||||
| 10:40 | Trim Patrick St | 1 | 29.6 | 51 | 69,903 | 0 | 0 | 0.78 | 12.04 | 43.7 | 13.72 | 2.86 | 7.1 | 7.82 | |||||
| 10:39 | Trim Patrick St | 1 | 29.6 | 51 | 69,877 | 0 | 0 | 0.82 | 11.78 | 47.71 | 13.83 | 2 | 6.33 | 6.96 | |||||
| 10:38 | Trim Patrick St | 1 | 29.7 | 51 | 69,879 | 0 | 0 | 0.82 | 11.63 | 52.36 | 14.59 | 3.71 | 8.61 | 9.47 | |||||
| 10:38 | Trim Market St | 2 | 29.3 | 53 | 56,407 | 0 | 0 | 0.73 | 13.03 | 34.25 | 0 | 0.71 | 2.83 | 3.17 | |||||
| 10:37 | Trim Patrick St | 1 | 29.8 | 52 | 69,909 | 0 | 0 | 0.82 | 12.53 | 52.84 | 14.56 | 2 | 7.08 | 7.79 | |||||
| 10:36 | Trim Patrick St | 1 | 29.8 | 51 | 69,919 | 0 | 0 | 0.78 | 12.98 | 52.15 | 14.72 | 2.86 | 8.61 | 9.47 | |||||
| 10:36 | Trim Market St | 2 | 29.4 | 54 | 56,693 | 0 | 0 | 0.71 | 12.59 | 25.29 | 0 | 0.71 | 2.79 | 3.19 | |||||
| 10:35 | Trim Patrick St | 1 | 29.8 | 52 | 69,928 | 0 | 0 | 0.77 | 13.31 | 55.79 | 14.51 | 2.86 | 7.84 | 8.62 | |||||
| 10:34 | Trim Patrick St | 1 | 29.8 | 52 | 69,940 | 0 | 0 | 0.78 | 13.11 | 55.16 | 14.07 | 2 | 7.07 | 7.77 | |||||
| 10:33 | Trim Patrick St | 1 | 29.8 | 52 | 69,990 | 0 | 0 | 0.77 | 13.47 | 58.04 | 14.42 | 2.86 | 7.07 | 7.77 | |||||
| 10:32 | Trim Patrick St | 1 | 29.8 | 52 | 70,054 | 0 | 0 | 0.83 | 13.21 | 57.97 | 14.64 | 2 | 7.07 | 7.78 | |||||
| 10:31 | Trim Market St | 2 | 29.1 | 56 | 57,688 | 0.17 | 0 | 1.13 | 22.27 | 51.74 | 0 | 1.43 | 3.72 | 4.69 | |||||
| 10:29 | Trim Patrick St | 1 | 29.6 | 53 | 70,313 | 0 | 0 | 0.89 | 13.42 | 37.73 | 14.04 | 2.86 | 7.74 | 8.51 | |||||
| 10:28 | Trim Patrick St | 1 | 29.5 | 53 | 70,449 | 0 | 0 | 0.92 | 13.47 | 56.71 | 14.04 | 2.86 | 6.97 | 7.66 | |||||
| 10:28 | Trim Market St | 2 | 28.7 | 56 | 57,725 | 0 | 0 | 0.81 | 14.04 | 53.48 | 0 | 0.71 | 2.69 | 3.28 | |||||
| 10:27 | Trim Patrick St | 1 | 29.4 | 53 | 70,568 | 0 | 0 | 0.84 | 13.82 | 57.83 | 14.11 | 2.86 | 7.72 | 8.49 | |||||
| 10:26 | Trim Patrick St | 1 | 29.3 | 54 | 70,722 | 0 | 0 | 0.82 | 13.66 | 59.02 | 14.06 | 2.86 | 6.95 | 7.64 | |||||
| 10:25 | Trim Patrick St | 1 | 29.2 | 54 | 70,867 | 0 | 0 | 0.78 | 13.66 | 57.62 | 13.88 | 2.86 | 7.7 | 8.47 | |||||